FW1293 Weather Reports


time (UTC)temp
F
wind
direction
speed
knots
gust
knots
rain 1hr
in
rain 24hr
in
rain mn
in
humidity
%
barometer
mb
20260506211533 46 134 0.0 4.3 0.01 0.77 0.57 96 1005.8
20260506210027 47 111 0.0 3.5 0.03 0.77 0.57 96 1005.7
20260506204524 48 86 0.9 3.5 0.03 0.77 0.57 97 1005.5
20260506203030 48 215 0.9 2.6 0.05 0.83 0.57 96 1005.4
20260506201522 48 138 0.0 3.5 0.08 0.82 0.56 96 1005.5
20260506200025 48 129 0.0 5.2 0.06 0.80 0.55 96 1005.4
20260506194619 49 96 1.7 6.1 0.07 0.80 0.55 96 1005.4
20260506193047 51 113 2.6 5.2 0.05 0.78 0.53 96 1005.4
20260506191551 53 135 1.7 7.0 0.02 0.75 0.50 94 1005.3
20260506190049 54 321 0.9 4.3 0.01 0.74 0.49 95 1005.2
20260506184553 54 9 0.9 4.3 0.00 0.73 0.48 95 1005.2
20260506183043 54 302 1.7 8.7 0.02 0.73 0.48 94 1005.1
20260506181540 54 283 2.6 7.0 0.03 0.73 0.48 96 1005.2
20260506180037 54 334 0.9 3.5 0.06 0.73 0.48 96 1005.6
20260506174534 54 38 0.0 2.6 0.08 0.73 0.48 97 1005.8
20260506173042 54 36 0.9 4.3 0.10 0.71 0.46 96 1006.0
20260506171535 53 308 0.9 4.3 0.12 0.69 0.44 97 1006.0
20260506170104 53 302 1.7 5.2 0.13 0.67 0.42 97 1006.0
20260506164601 53 323 1.7 6.1 0.13 0.65 0.40 97 1006.0
20260506163126 53 315 1.7 5.2 0.11 0.61 0.36 96 1006.1
20260506161554 53 26 1.7 7.8 0.10 0.56 0.32 96 1006.3
20260506160052 53 321 1.7 7.8 0.11 0.54 0.28 96 1006.6
20260506154553 53 15 2.6 6.1 0.11 0.52 0.27 96 1006.7
20260506153020 53 52 1.7 7.0 0.10 0.49 0.24 96 1006.9
20260506151519 53 69 0.9 7.8 0.09 0.47 0.22 96 1006.9
20260506150046 53 325 1.7 7.0 0.07 0.43 0.18 96 1007.1
20260506144546 53 5 1.7 7.8 0.06 0.40 0.15 96 1007.2
20260506143044 53 351 1.7 7.8 0.07 0.39 0.14 96 1007.2
20260506141543 53 299 0.9 6.1 0.07 0.38 0.13 96 1007.3
20260506140042 53 298 1.7 8.7 0.07 0.36 0.11 95 1007.3
20260506134540 53 294 2.6 7.0 0.07 0.34 0.09 96 1007.2
20260506133036 52 348 1.7 7.0 0.06 0.32 0.07 97 1007.2
20260506131537 52 311 0.9 4.3 0.06 0.31 0.06 97 1007.4
20260506130032 51 22 0.0 3.5 0.04 0.28 0.04 97 1007.6
20260506124532 51 219 0.9 3.5 0.02 0.27 0.02 96 1007.8
20260506123028 51 69 0.0 1.7 0.01 0.26 0.01 96 1007.9
20260506121527 52 68 0.9 7.0 0.00 0.25 0.00 95 1007.7
20260506120024 51 284 5.2 18.2 0.00 0.25 0.00 97 1007.7
20260506114524 50 94 6.1 10.4 0.00 0.25 0.00 96 1007.6
20260506113020 50 96 2.6 5.2 0.00 0.25 0.00 95 1008.0
20260506111526 50 190 1.7 6.1 0.00 0.25 0.00 95 1007.8
20260506110017 50 108 0.0 4.3 0.00 0.25 0.00 94 1007.7
20260506104512 50 263 3.5 7.0 0.00 0.25 0.00 92 1007.7
20260506103008 50 237 1.7 7.0 0.00 0.25 0.00 92 1007.4
20260506101504 50 237 2.6 7.8 0.00 0.25 0.00 94 1007.4
20260506100004 49 244 0.9 3.5 0.00 0.25 0.00 95 1007.9
20260506094503 49 263 0.9 2.6 0.00 0.25 0.00 95 1007.8
20260506093101 49 238 1.7 3.5 0.00 0.25 0.00 95 1007.9
20260506091556 50 236 1.7 3.5 0.00 0.25 0.00 94 1007.9
20260506090109 50 269 0.9 2.6 0.00 0.25 0.00 94 1008.3
20260506084609 50 269 0.9 2.6 0.00 0.25 0.00 95 1008.0
20260506083052 50 271 0.0 0.0 0.01 0.25 0.25 95 1008.2
20260506081549 50 154 0.9 2.6 0.01 0.25 0.25 95 1008.6
20260506073045 50 231 0.0 2.6 0.00 0.24 0.24 94 1008.2
20260506071542 51 223 1.7 3.5 0.00 0.24 0.24 94 1008.3
20260506061538 51 171 0.0 0.0 0.06 0.24 0.24 95 1008.5
20260506044522 54 254 0.0 3.5 0.04 0.11 0.11 91 1008.6
20260506043020 55 76 0.9 6.1 0.02 0.09 0.09 91 1008.9
20260506041524 56 64 2.6 7.0 0.00 0.07 0.07 88 1008.7
20260506040011 57 5 2.6 8.7 0.00 0.07 0.07 86 1008.4
20260506034511 57 115 2.6 9.6 0.00 0.07 0.07 85 1008.4
20260506033010 57 323 0.9 5.2 0.00 0.07 0.07 83 1008.1
20260506031508 58 44 1.7 3.5 0.00 0.07 0.07 83 1008.2
20260506030006 58 355 0.0 2.6 0.00 0.07 0.07 82 1007.9
20260506024507 58 340 0.9 2.6 0.00 0.07 0.07 81 1007.7
20260506023007 58 14 0.0 2.6 0.00 0.07 0.07 81 1007.8
20260506021504 58 308 1.7 3.5 0.00 0.07 0.07 80 1008.0
20260506020003 58 49 0.0 3.5 0.00 0.07 0.07 79 1008.1
20260506014502 58 331 0.0 4.3 0.00 0.07 0.07 80 1007.6
20260506013105 58 302 0.9 3.5 0.00 0.07 0.07 80 1007.4
20260506011531 57 294 0.0 3.5 0.00 0.07 0.07 80 1007.4
20260506010033 58 345 0.9 3.5 0.00 0.07 0.07 79 1007.2
20260506004604 58 305 0.9 4.3 0.00 0.07 0.07 79 1007.1
20260506003059 59 299 1.7 2.6 0.00 0.07 0.07 78 1007.0
20260506001528 59 336 1.7 3.5 0.00 0.07 0.07 78 1007.0
20260506000027 59 350 0.0 4.3 0.00 0.07 0.07 78 1007.0
20260505234558 59 88 0.9 5.2 0.00 0.07 0.07 77 1007.3
20260505233058 60 130 3.5 10.4 0.00 0.07 0.07 75 1007.4
20260505231555 60 47 4.3 9.6 0.00 0.07 0.07 76 1007.2
20260505230119 59 29 1.7 11.3 0.00 0.07 0.07 76 1006.7
20260505224553 59 117 4.3 12.2 0.00 0.07 0.07 76 1006.7
20260505223053 59 25 4.3 8.7 0.00 0.07 0.07 78 1006.6
20260505221523 60 41 4.3 9.6 0.00 0.07 0.07 78 1006.6
20260505220033 60 133 5.2 15.6 0.00 0.07 0.07 78 1006.3
20260505214522 59 113 4.3 12.2 0.01 0.07 0.07 79 1006.9
20260505213019 60 244 4.3 10.4 0.02 0.07 0.07 77 1006.4